EW3222 Weather Reports


time (UTC)temp
C
wind
direction
speed
KPH
gust
KPH
rain 1hr
cm
rain 24hr
cm
rain mn
cm
humidity
%
barometer
mb
20260906224508 24 240 11.3 19.3 0.00 0.00 0.00 24 1003.7
20260906223010 24 225 9.7 25.7 0.00 0.00 0.00 24 1003.6
20260906221508 24 218 14.5 24.1 0.00 0.00 0.00 23 1003.6
20260906220004 24 221 8.0 19.3 0.00 0.00 0.00 23 1003.7
20260906214542 24 225 12.9 30.6 0.00 0.00 0.00 23 1003.7
20260906213032 25 226 9.7 24.1 0.00 0.00 0.00 22 1003.8
20260906211529 24 211 14.5 32.2 0.00 0.00 0.00 22 1004.0
20260906210028 24 231 9.7 29.0 0.00 0.00 0.00 25 1004.4
20260906204525 24 216 20.9 32.2 0.00 0.00 0.00 24 1004.4
20260906203033 25 225 12.9 25.7 0.00 0.00 0.00 24 1004.6
20260906201538 24 187 14.5 29.0 0.00 0.00 0.00 25 1004.5
20260906200021 25 246 14.5 29.0 0.00 0.00 0.00 24 1004.5
20260906194522 25 196 16.1 27.4 0.00 0.00 0.00 22 1004.8
20260906194520 25 194 16.1 27.4 0.00 0.00 0.00 22 1004.8
20260906193019 24 168 4.8 20.9 0.00 0.00 0.00 22 1004.7
20260906191516 24 190 6.4 17.7 0.00 0.00 0.00 23 1005.0
20260906190012 24 254 6.4 37.0 0.00 0.00 0.00 22 1005.4
20260906184508 23 251 17.7 37.0 0.00 0.00 0.00 21 1005.9
20260906183008 23 223 16.1 27.4 0.00 0.00 0.00 21 1006.0
20260906181512 23 217 12.9 24.1 0.00 0.00 0.00 24 1006.2
20260906180121 23 227 6.4 25.7 0.00 0.00 0.00 25 1006.4
20260906174620 22 265 8.0 19.3 0.00 0.00 0.00 25 1006.6
20260906173056 23 226 11.3 33.8 0.00 0.00 0.00 23 1006.9
20260906171610 25 278 0.0 0.0 0.00 0.00 0.00 30 1007.1
20260906170057 23 313 0.0 0.0 0.00 0.00 0.00 31 1007.4
20260906164547 22 44 0.0 0.0 0.00 0.00 0.00 31 1007.6
20260906163044 22 44 0.0 0.0 0.00 0.00 0.00 33 1007.9
20260906161554 21 44 0.0 0.0 0.00 0.00 0.00 34 1008.0
20260906160007 20 102 0.0 0.0 0.00 0.00 0.00 33 1008.3
20260906154503 18 188 0.0 0.0 0.00 0.00 0.00 35 1008.5
20260906153110 17 188 0.0 0.0 0.00 0.00 0.00 39 1008.7
20260906151551 13 188 0.0 0.0 0.00 0.00 0.00 46 1008.7
20260906150049 11 215 0.0 0.0 0.00 0.00 0.00 50 1008.8
20260906144550 10 178 0.0 0.0 0.00 0.00 0.00 55 1008.9
20260906143045 9 178 0.0 0.0 0.00 0.00 0.00 59 1008.9
20260906141559 8 174 0.0 0.0 0.00 0.00 0.00 62 1008.8
20260906140044 7 171 0.0 0.0 0.00 0.00 0.00 62 1008.8
20260906134547 7 170 0.0 0.0 0.00 0.00 0.00 63 1008.7
20260906133044 7 170 0.0 0.0 0.00 0.00 0.00 61 1008.6
20260906131553 7 170 0.0 0.0 0.00 0.00 0.00 63 1008.5
20260906130051 7 170 0.0 0.0 0.00 0.00 0.00 63 1008.3
20260906124535 8 170 0.0 0.0 0.00 0.00 0.00 62 1008.1
20260906123035 7 170 0.0 0.0 0.00 0.00 0.00 64 1007.8
20260906121536 7 170 0.0 0.0 0.00 0.00 0.00 62 1007.8
20260906120029 7 170 0.0 0.0 0.00 0.00 0.00 61 1007.6
20260906114532 8 121 0.0 0.0 0.00 0.00 0.00 62 1007.6
20260906113025 8 58 0.0 0.0 0.00 0.00 0.00 63 1007.7
20260906111520 9 58 0.0 0.0 0.00 0.00 0.00 60 1007.7
20260906110016 10 58 0.0 0.0 0.00 0.00 0.00 57 1007.6
20260906104515 10 58 0.0 0.0 0.00 0.00 0.00 57 1007.5
20260906103015 10 58 0.0 0.0 0.00 0.00 0.00 55 1007.6
20260906101512 10 202 0.0 0.0 0.00 0.00 0.00 55 1007.4
20260906100018 10 202 0.0 0.0 0.00 0.00 0.00 53 1007.3
20260906094510 10 192 0.0 8.0 0.00 0.00 0.00 56 1007.3
20260906093006 10 219 0.0 0.0 0.00 0.00 0.00 55 1007.2
20260906091505 10 219 0.0 0.0 0.00 0.00 0.00 55 1007.2
20260906090002 10 219 0.0 0.0 0.00 0.00 0.00 53 1007.2
20260906084600 11 219 0.0 0.0 0.00 0.00 0.00 51 1007.2
20260906083102 11 219 0.0 0.0 0.00 0.00 0.00 49 1007.1
20260906081555 11 219 0.0 0.0 0.00 0.00 0.00 52 1007.1
20260906080055 12 219 0.0 0.0 0.00 0.00 0.00 51 1007.2
20260906074554 11 219 0.0 0.0 0.00 0.00 0.00 53 1007.3
20260906073052 11 219 0.0 0.0 0.00 0.00 0.00 50 1007.2
20260906071548 11 219 0.0 0.0 0.00 0.00 0.00 49 1007.0
20260906070045 12 220 0.0 0.0 0.00 0.00 0.00 47 1007.0
20260906064544 12 220 0.0 0.0 0.00 0.00 0.00 48 1007.0
20260906063043 12 220 0.0 1.6 0.00 0.00 0.00 48 1007.1
20260906061511 12 259 0.0 0.0 0.00 0.00 0.00 46 1007.1
20260906060008 12 186 0.0 0.0 0.00 0.00 0.00 49 1007.1
20260906054503 12 215 0.0 0.0 0.00 0.00 0.00 47 1006.9
20260906053003 13 215 0.0 1.6 0.00 0.00 0.00 47 1007.0
20260906051501 15 198 0.0 0.0 0.00 0.00 0.00 42 1006.9
20260906050001 15 71 0.0 14.5 0.00 0.00 0.00 36 1007.0
20260906044559 15 242 0.0 4.8 0.00 0.00 0.00 40 1007.1
20260906043059 17 175 1.6 17.7 0.00 0.00 0.00 31 1006.9
20260906041559 18 121 0.0 22.5 0.00 0.00 0.00 30 1007.0
20260906040058 17 109 1.6 14.5 0.00 0.00 0.00 31 1006.9
20260906034628 16 215 0.0 0.0 0.00 0.00 0.00 35 1007.0
20260906033031 17 215 0.0 0.0 0.00 0.00 0.00 35 1006.9
20260906031529 18 215 0.0 8.0 0.00 0.00 0.00 33 1006.8
20260906030025 19 56 1.6 16.1 0.00 0.00 0.00 28 1006.5
20260906024523 20 88 3.2 14.5 0.00 0.00 0.00 27 1006.3
20260906023028 19 81 0.0 3.2 0.00 0.00 0.00 28 1006.0
20260906021520 20 42 0.0 0.0 0.00 0.00 0.00 29 1005.8
20260906020020 21 271 0.0 0.0 0.00 0.00 0.00 25 1005.7
20260906014519 22 222 0.0 0.0 0.00 0.00 0.00 25 1005.6
20260906013019 23 219 0.0 0.0 0.00 0.00 0.00 23 1005.4
20260906011516 23 220 0.0 0.0 0.00 0.00 0.00 23 1005.4
20260906010015 24 212 1.6 14.5 0.00 0.00 0.00 21 1005.4
20260906004515 25 228 9.7 24.1 0.00 0.00 0.00 17 1005.3
20260906003015 25 242 16.1 27.4 0.00 0.00 0.00 17 1005.3
20260906001519 25 223 6.4 32.2 0.00 0.00 0.00 17 1005.2
20260906000012 25 236 4.8 17.7 0.00 0.00 0.00 18 1005.4
20260905234511 26 262 8.0 17.7 0.00 0.00 0.00 17 1005.3
20260905233014 26 231 12.9 27.4 0.00 0.00 0.00 16 1005.4
20260905231512 26 237 12.9 25.7 0.00 0.00 0.00 16 1005.4
20260905230006 26 258 8.0 20.9 0.00 0.00 0.00 17 1005.3